Powrót do katalogu

STARLINK-32244

AktywnyŁącznośćVLEO
NORAD 60411·PAYLOAD·🇺🇸 United States

Wystrzelony Aug 10, 2024 z Cape Canaveral Space Force Station

Loading…

Następne Przeloty (najbliższe 24 godziny)

TLE

ŚwieżeSource: CelesTrak SupGP

Epoka: Sep 14, 2026, 22:25 UTC

1 60411C 24141P   26257.93451389 -.00030742  00000+0 -98913-3 0  2575
2 60411  53.1578  82.3160 0001315  82.5128 236.3686 15.31699496    17

Śledź STARLINK-32244 w czasie rzeczywistym z AllMySat

Download on the App Store